Weather History for KLJF - April, 2015

Change the Weather History Date:

Saturday, April 25, 2015

  Actual Average Record
Temperature  
Mean Temperature 51 °F -  
Max Temperature 60 °F 64 °F 90 °F (1962)
Min Temperature 42 °F 39 °F 25 °F (1968)
Degree Days  
Heating Degree Days 14    
Growing Degree Days 1 (Base 50)    
Moisture  
Dew Point 39 °F    
Average Humidity 70    
Maximum Humidity 100    
Minimum Humidity 29    
Precipitation  
Precipitation 0.00 in - - ()
Sea Level Pressure  
Sea Level Pressure 29.85 in    
Wind  
Wind Speed 12 mph (East)    
Max Wind Speed 17 mph    
Max Gust Speed 22 mph    
Visibility 9 miles    
Events      
Averages and records for this station are not official NWS values.
T = Trace of Precipitation, MM = Missing Value Source: NWS Daily Summary

Daily Weather History Graph

Daily Weather History Graph

Search for Another Location

Airport or City:

Trip Planner

Search our weather history database for the weather conditions in past years. The results will help you decide how hot, cold, wet, or windy it might be!

Date:

Astronomy

Apr. 25, 2015 Rise Set
Actual Time 6:16 AM CDT 8:16 PM CDT
Civil Twilight 5:45 AM CDT 8:47 PM CDT
Nautical Twilight 5:06 AM CDT 9:27 PM CDT
Astronomical Twilight 4:23 AM CDT 10:10 PM CDT
Moon 12:15 PM CDT (4/25) 2:03 AM CDT (4/25)
Length of Visible Light 15h 02m
Length of Day
13h 59m
Waxing Crescent, 47% of the Moon is Illuminated
Apr 25
Waxing Crescent
Apr 25
First Quarter
May 3
Full
May 11
Last Quarter
May 17
New

Hourly Weather History & Observations

Time (CDT) Temp. Windchill Dew Point Humidity Pressure Visibility Wind Dir Wind Speed Gust Speed Precip Events Conditions
12:13 AM 44.6 °F 37.4 °F 42.8 °F 93% 29.77 in 10.0 mi ESE 16.1 mph - N/A   Overcast
12:33 AM 44.6 °F 37.2 °F 42.8 °F 93% 29.78 in 10.0 mi East 17.3 mph 21.9 mph N/A   Overcast
12:52 AM 44.6 °F 38.4 °F 42.8 °F 93% 29.78 in 10.0 mi ESE 12.7 mph - N/A   Overcast
1:13 AM 44.6 °F 38.4 °F 42.8 °F 93% 29.78 in 10.0 mi ESE 12.7 mph - N/A   Overcast
1:33 AM 44.6 °F 38.4 °F 42.8 °F 93% 29.78 in 4.0 mi ESE 12.7 mph - N/A   Overcast
1:52 AM 44.6 °F 38.8 °F 44.6 °F 100% 29.78 in 4.0 mi East 11.5 mph - N/A   Overcast
2:13 AM 44.6 °F 39.2 °F 44.6 °F 100% 29.78 in 5.0 mi East 10.4 mph - N/A   Overcast
2:32 AM 44.6 °F 38.8 °F 44.6 °F 100% 29.78 in 7.0 mi East 11.5 mph - N/A   Overcast
2:53 AM 44.6 °F 39.2 °F 44.6 °F 100% 29.78 in 7.0 mi East 10.4 mph - N/A   Overcast
3:13 AM 44.6 °F 38.4 °F 42.8 °F 93% 29.78 in 7.0 mi East 12.7 mph - N/A   Overcast
3:32 AM 44.6 °F 38.8 °F 42.8 °F 93% 29.79 in 7.0 mi East 11.5 mph 17.3 mph N/A   Overcast
3:53 AM 42.8 °F 37.0 °F 42.8 °F 100% 29.78 in 5.0 mi East 10.4 mph 16.1 mph N/A   Overcast
4:13 AM 42.8 °F 36.2 °F 42.8 °F 100% 29.79 in 4.0 mi East 12.7 mph - N/A   Overcast
4:32 AM 42.8 °F 36.6 °F 42.8 °F 100% 29.79 in 4.0 mi East 11.5 mph - N/A   Overcast
4:53 AM 42.8 °F 37.5 °F 42.8 °F 100% 29.79 in 4.0 mi East 9.2 mph - N/A   Overcast
5:13 AM 42.8 °F 36.6 °F 42.8 °F 100% 29.79 in 4.0 mi East 11.5 mph - N/A   Overcast
5:32 AM 42.8 °F 36.2 °F 42.8 °F 100% 29.79 in 5.0 mi East 12.7 mph - N/A   Overcast
5:52 AM 42.8 °F 36.6 °F 42.8 °F 100% 29.79 in 5.0 mi East 11.5 mph - N/A   Overcast
6:13 AM 42.8 °F 36.6 °F 42.8 °F 100% 29.79 in 7.0 mi East 11.5 mph - N/A   Overcast
6:32 AM 42.8 °F 37.0 °F 41.0 °F 93% 29.79 in 10.0 mi East 10.4 mph - N/A   Overcast
6:53 AM 42.8 °F 37.5 °F 41.0 °F 93% 29.80 in 10.0 mi ENE 9.2 mph - N/A   Overcast
7:13 AM 42.8 °F 37.0 °F 41.0 °F 93% 29.81 in 10.0 mi East 10.4 mph - N/A   Overcast
7:33 AM 42.8 °F 36.2 °F 41.0 °F 93% 29.82 in 10.0 mi East 12.7 mph - N/A   Overcast
7:52 AM 44.6 °F 38.8 °F 41.0 °F 87% 29.82 in 10.0 mi East 11.5 mph - N/A   Overcast
8:13 AM 44.6 °F 38.1 °F 41.0 °F 87% 29.82 in 10.0 mi East 13.8 mph - N/A   Overcast
8:32 AM 44.6 °F 38.4 °F 41.0 °F 87% 29.82 in 10.0 mi East 12.7 mph - N/A   Overcast
8:53 AM 44.6 °F 37.8 °F 41.0 °F 87% 29.83 in 10.0 mi East 15.0 mph 18.4 mph N/A   Overcast
9:13 AM 44.6 °F 38.8 °F 41.0 °F 87% 29.83 in 10.0 mi East 11.5 mph 17.3 mph N/A   Overcast
9:32 AM 44.6 °F 38.4 °F 41.0 °F 87% 29.85 in 10.0 mi East 12.7 mph 16.1 mph N/A   Overcast
9:53 AM 44.6 °F 38.8 °F 39.2 °F 81% 29.85 in 10.0 mi East 11.5 mph 20.7 mph N/A   Overcast
10:13 AM 46.4 °F 40.4 °F 41.0 °F 81% 29.85 in 10.0 mi East 13.8 mph 18.4 mph N/A   Overcast
10:32 AM 46.4 °F 40.4 °F 41.0 °F 81% 29.85 in 10.0 mi East 13.8 mph 18.4 mph N/A   Overcast
10:53 AM 46.4 °F 41.1 °F 41.0 °F 81% 29.85 in 10.0 mi East 11.5 mph 19.6 mph N/A   Overcast
11:13 AM 46.4 °F 40.1 °F 41.0 °F 81% 29.86 in 10.0 mi East 15.0 mph 19.6 mph N/A   Overcast
11:32 AM 48.2 °F - 41.0 °F 76% 29.86 in 10.0 mi East 12.7 mph - N/A   Mostly Cloudy
11:53 AM 50.0 °F - 42.8 °F 76% 29.86 in 10.0 mi East 13.8 mph 19.6 mph N/A   Mostly Cloudy
12:13 PM 51.8 °F - 42.8 °F 71% 29.86 in 10.0 mi East 9.2 mph - N/A   Mostly Cloudy
12:32 PM 53.6 °F - 42.8 °F 67% 29.85 in 10.0 mi NE 12.7 mph - N/A   Overcast
12:53 PM 53.6 °F - 42.8 °F 67% 29.86 in 10.0 mi East 16.1 mph 21.9 mph N/A   Scattered Clouds
1:13 PM 55.4 °F - 41.0 °F 58% 29.85 in 10.0 mi East 12.7 mph - N/A   Scattered Clouds
1:32 PM 57.2 °F - 41.0 °F 55% 29.85 in 10.0 mi ENE 13.8 mph 18.4 mph N/A   Scattered Clouds
1:53 PM 57.2 °F - 39.2 °F 51% 29.84 in 10.0 mi ENE 16.1 mph 20.7 mph N/A   Scattered Clouds
2:13 PM 57.2 °F - 39.2 °F 51% 29.84 in 10.0 mi ENE 13.8 mph 21.9 mph N/A   Scattered Clouds
2:32 PM 57.2 °F - 39.2 °F 51% 29.85 in 10.0 mi East 16.1 mph 21.9 mph N/A   Scattered Clouds
2:53 PM 57.2 °F - 39.2 °F 51% 29.85 in 10.0 mi East 12.7 mph 18.4 mph N/A   Clear
3:12 PM 59.0 °F - 39.2 °F 48% 29.85 in 10.0 mi East 12.7 mph - N/A   Clear
3:33 PM 59.0 °F - 37.4 °F 45% 29.85 in 10.0 mi ENE 12.7 mph 18.4 mph N/A   Clear
3:53 PM 59.0 °F - 37.4 °F 45% 29.85 in 10.0 mi East 13.8 mph 19.6 mph N/A   Clear
4:12 PM 59.0 °F - 37.4 °F 45% 29.85 in 10.0 mi East 12.7 mph 18.4 mph N/A   Clear
4:33 PM 60.8 °F - 35.6 °F 39% 29.86 in 10.0 mi ENE 12.7 mph 18.4 mph N/A   Clear
4:53 PM 60.8 °F - 35.6 °F 39% 29.86 in 10.0 mi ENE 13.8 mph 18.4 mph N/A   Clear
5:13 PM 60.8 °F - 33.8 °F 36% 29.86 in 10.0 mi East 10.4 mph 17.3 mph N/A   Clear
5:32 PM 60.8 °F - 33.8 °F 36% 29.87 in 10.0 mi ENE 12.7 mph - N/A   Clear
5:53 PM 60.8 °F - 32.0 °F 34% 29.87 in 10.0 mi ENE 9.2 mph - N/A   Clear
6:13 PM 60.8 °F - 30.2 °F 31% 29.88 in 10.0 mi ENE 13.8 mph - N/A   Clear
6:33 PM 60.8 °F - 28.4 °F 29% 29.88 in 10.0 mi East 9.2 mph - N/A   Clear
6:52 PM 60.8 °F - 28.4 °F 29% 29.88 in 10.0 mi East 8.1 mph - N/A   Clear
7:13 PM 59.0 °F - 26.6 °F 29% 29.88 in 10.0 mi ENE 6.9 mph - N/A   Clear
7:33 PM 57.2 °F - 26.6 °F 31% 29.89 in 10.0 mi East 6.9 mph - N/A   Clear
7:52 PM 57.2 °F - 26.6 °F 31% 29.90 in 10.0 mi ENE 4.6 mph - N/A   Clear
8:13 PM 55.4 °F - 28.4 °F 36% 29.91 in 10.0 mi NE 5.8 mph - N/A   Clear
8:32 PM 53.6 °F - 32.0 °F 44% 29.92 in 10.0 mi NE 4.6 mph - N/A   Clear
8:53 PM 53.6 °F - 33.8 °F 47% 29.93 in 10.0 mi ENE 5.8 mph - N/A   Clear
9:13 PM 51.8 °F - 33.8 °F 50% 29.94 in 10.0 mi NE 5.8 mph - N/A   Clear
9:32 PM 50.0 °F - 35.6 °F 58% - 10.0 mi NE 5.8 mph - N/A   Clear
9:53 PM 48.2 °F - 35.6 °F 62% 29.96 in 10.0 mi NE 5.8 mph - N/A   Clear
10:13 PM 48.2 °F - 33.8 °F 58% 29.96 in 10.0 mi NE 6.9 mph - N/A   Clear
10:32 PM 48.2 °F - 33.8 °F 58% 29.97 in 10.0 mi ENE 8.1 mph - N/A   Clear
10:53 PM 46.4 °F 42.9 °F 33.8 °F 62% 29.97 in 10.0 mi ENE 6.9 mph - N/A   Clear
11:13 PM 46.4 °F 42.9 °F 33.8 °F 62% 29.98 in 10.0 mi NE 6.9 mph - N/A   Clear
11:32 PM 44.6 °F 40.7 °F 32.0 °F 61% 29.99 in 10.0 mi NNE 6.9 mph - N/A   Clear
11:53 PM 44.6 °F 43.1 °F 30.2 °F 57% 30.00 in 10.0 mi NE 3.5 mph - N/A   Clear